Other Surface Observations
Issued by NWS Charleston, SC

Home | Current Version | Previous Version | Text Only | Print | Product List | Glossary On
Versions: 1 2 3 4 5 6 7 8 9 10 11 12 13 14 15 16 17 18 19 20 21 22 23 24 25 26 27 28 29 30 31 32 33 34 35 36 37 38 39 40 41 42 43 44 45 46 47 48 49 50
241
SXUS52 KCHS 201512
OSOCHS

MARINE OBSERVATIONS
NATIONAL WEATHER SERVICE CHARLESTON SC
1000 AM EST MON FEB 20 2017

...DOWNTOWN CHARLESTON AND HARBOR...

CITY           SKY/WX    TMP DP  RH WIND       PRES   REMARKS
WATERFRONT PRK   N/A     61  49  65 N5        30.18R

...LAKE MOULTRIE...

CITY           SKY/WX    TMP DP  RH WIND       PRES   REMARKS
PINOPOLIS        N/A     57  48  72 VRB2      30.11R

...LAKE AND SUPPLEMENTAL COASTAL OBSERVATIONS...

STATION/POSITION TIME  TEMP    WIND        PRES    WAVE   SWELL
                       AIR SEA DIR/SP/G            HT/PER HT/PER/DIR
                 (UTC) (F)     (DEG/KT/KT) (MB)    (FT/S) (FT/S/D)
FORT PULASKI     1448   61 60   80/  9/ 12 1022.6R
SAPELO ISLAND    1400   63      20/  3     1022.0
WINYAH BAY       NOT AVBL
LAKE MURRAY      1420   55     300/  1/  2 1023.4
ACE BASIN NERRS  1345   58      10/  2     1022.0


...C-MAN AND BUOY OBSERVATIONS...

STATION/POSITION TIME  TEMP    WIND        PRES    WAVE   SWELL
                       AIR SEA DIR/SP/G            HT/PER HT/PER/DIR
                 (UTC) (F)     (DEG/KT/KT) (MB)    (FT/S) (FT/S/D)
BUOY 41004       1450   64 69   50/ 14/ 16 1021.0F   2/ 3
BUOY 41008       1450   63 62   30/  8/  8 1022.0R   1
FOLLY BEACH CMAN 1500   60      40/  8/  9 1023.2R
CAPERS NS BUOY   1408   58 59   40/ 12/ 14 1021.7S
FRIPP NS BUOY    1408   60 59   30/  8/ 10 1022.1R
5E ST. MARYS GA  1500      64                N/A     1


STATION/POSITION TIME  TEMP    WIND        PRES    WAVE   SWELL
                       AIR SEA DIR/SP/G            HT/PER HT/PER/DIR
                 (UTC) (F)     (DEG/KT/KT) (MB)    (FT/S) (FT/S/D)
FRYING PAN BUOY  1450   60 65   20/ 12/ 14 1021.9R   2/ 4
BUOY 41025       1450   59 64   20/ 16/ 21 1021.2R   3/ 4   2/100/ 7
CAPE LOOKOUT NC  1500   61      30/ 15/ 19 1022.3R
BUOY 41002       1450   70 71   30/ 17/ 19 1019.4R   6/ 6
BUOY 41010       NOT AVBL
ST AUGUSTINE FL  1500   64 66   20/  5/  5 1022.7R

$$




USA.gov is the U.S. government's official web portal to all federal, state and local government web resources and services.